Le nostre stazioni meteo in Italia

Pubblicità
Il mio iltempo24.it
Luqa, Malta (16597): Temperatura & dewpoint: 19.04.2018 20:00:00 - 25.04.2018 20:00:00 (CEST)Luqa, Malta (16597): velocità del vento: 19.04.2018 20:00:00 - 25.04.2018 20:00:00 (CEST)Luqa, Malta (16597): direzione del vento: 19.04.2018 20:00:00 - 25.04.2018 20:00:00 (CEST)Luqa, Malta (16597): reduced air pressure: 19.04.2018 20:00:00 - 25.04.2018 20:00:00 (CEST)Luqa, Malta (16597): visibility: 19.04.2018 20:00:00 - 25.04.2018 20:00:00 (CEST)
Data & Tempo tt [°C] td [°C] ff [km/h] ff [kn] dd ppp [hPa] vv [km]
25.04.2018 20:00:00 18,3 13,0 9 5 S 1017,3 10
25.04.2018 19:00:00 20,0 12,0 11 6 S - 10
25.04.2018 18:00:00 20,0 11,0 13 7 S - 10
25.04.2018 17:00:00 22,0 10,0 15 8 S - 10
25.04.2018 16:00:00 23,0 8,0 15 8 SSO - 10
25.04.2018 15:00:00 25,0 8,0 13 7 SSO - 10
25.04.2018 14:00:00 24,5 7,3 13 7 SSO 1018,8 10
25.04.2018 13:00:00 24,0 8,0 13 7 SSO - 10
25.04.2018 12:00:00 24,0 8,0 13 7 SO - 10
25.04.2018 11:00:00 22,7 7,5 13 7 SSO 1019,3 10
25.04.2018 10:00:00 22,0 11,0 11 6 SSO - 10
25.04.2018 09:00:00 22,0 8,0 9 5 S - 10
25.04.2018 08:00:00 20,0 11,0 2 1 - 1019,1 10
25.04.2018 07:00:00 16,0 9,0 4 2 ONO - 10
25.04.2018 06:00:00 14,0 8,0 8 4 ONO - 10
25.04.2018 05:00:00 14,5 7,7 4 2 O 1018,7 10
25.04.2018 04:00:00 15,0 7,0 5 3 NNO - 10
25.04.2018 03:00:00 15,0 8,0 4 2 NNO - 10
25.04.2018 02:00:00 15,0 9,3 5 3 NO 1019,4 10
25.04.2018 01:00:00 16,0 9,0 4 2 NNO - 10
25.04.2018 00:00:00 16,0 10,0 5 3 NNO - 10
24.04.2018 23:00:00 16,6 11,2 4 2 NNE 1020,0 10
24.04.2018 22:00:00 18,0 14,0 2 1 - - 10
24.04.2018 21:00:00 18,0 14,0 2 1 ONO - 10
24.04.2018 20:00:00 18,9 14,6 4 2 SSE 1019,0 10
24.04.2018 19:00:00 20,0 15,0 11 6 SSE - 10
24.04.2018 18:00:00 22,0 15,0 9 5 SE - 10
24.04.2018 17:00:00 24,0 15,5 13 7 SE 1018,9 10
24.04.2018 16:00:00 25,0 16,0 13 7 SE - 10
24.04.2018 15:00:00 25,0 15,0 9 5 S - 10
24.04.2018 14:00:00 25,0 16,3 15 8 SE 1019,8 10
24.04.2018 13:00:00 25,0 14,0 11 6 NE - 10
24.04.2018 12:00:00 24,0 16,0 9 5 ENE - 10
24.04.2018 11:00:00 25,7 11,4 8 4 SO 1020,3 10
24.04.2018 10:00:00 24,0 13,0 4 2 - - 10
24.04.2018 09:00:00 22,0 13,0 4 2 - - 10
24.04.2018 08:00:00 19,9 14,0 4 2 - 1019,5 10
24.04.2018 07:00:00 16,0 13,0 4 2 OSO - 10
24.04.2018 06:00:00 15,0 13,0 8 4 O - 10
24.04.2018 05:00:00 15,3 11,6 5 3 O 1018,4 10
24.04.2018 04:00:00 16,0 12,0 8 4 O - 10
24.04.2018 03:00:00 15,0 12,0 8 4 ONO - 10
24.04.2018 02:00:00 15,2 11,6 9 5 O 1018,7 10
24.04.2018 01:00:00 16,0 12,0 5 3 O - 10
24.04.2018 00:00:00 16,0 11,0 8 4 O - 10
23.04.2018 23:00:00 16,2 11,9 8 4 O 1019,4 10
23.04.2018 22:00:00 17,0 13,0 5 3 NO - 10
23.04.2018 21:00:00 17,0 13,0 5 3 NO - 10
23.04.2018 20:00:00 18,1 12,8 9 5 NNO 1018,5 10
23.04.2018 19:00:00 20,0 14,0 11 6 N - 10
23.04.2018 18:00:00 22,0 13,0 9 5 NE - 10
23.04.2018 17:00:00 23,1 12,3 9 5 ENE 1018,0 10
23.04.2018 16:00:00 23,0 14,0 5 3 SSO - 10
23.04.2018 15:00:00 23,0 13,0 11 6 ENE - 10
23.04.2018 14:00:00 23,1 12,0 13 7 E 1018,9 10
23.04.2018 13:00:00 24,0 13,0 15 8 NE - 10
23.04.2018 12:00:00 24,0 11,0 11 6 ENE - 10
23.04.2018 11:00:00 22,8 10,5 11 6 NE 1019,7 10
23.04.2018 10:00:00 22,0 10,0 13 7 N - 10
23.04.2018 09:00:00 20,0 12,0 11 6 N - 10
23.04.2018 08:00:00 17,0 13,5 5 3 NNO 1019,0 10
23.04.2018 07:00:00 14,0 13,0 5 3 O - 10
23.04.2018 06:00:00 14,0 13,0 5 3 O - 10
23.04.2018 05:00:00 14,7 13,5 9 5 OSO 1019,2 10
23.04.2018 04:00:00 14,0 12,0 5 3 OSO - 10
23.04.2018 03:00:00 15,0 11,0 8 4 O - 10
23.04.2018 02:00:00 14,6 11,1 8 4 O 1019,4 10
23.04.2018 01:00:00 15,0 11,0 5 3 NO - 10
23.04.2018 00:00:00 15,0 10,0 8 4 O - 10
22.04.2018 23:00:00 15,6 10,2 8 4 O 1019,7 10
22.04.2018 22:00:00 16,0 10,0 5 3 NO - 10
22.04.2018 21:00:00 17,0 10,0 4 2 NO - 10
22.04.2018 20:00:00 18,4 10,3 5 3 NO 1019,1 10
22.04.2018 19:00:00 20,0 11,0 8 4 O - 10
22.04.2018 18:00:00 21,0 10,0 11 6 OSO - 10
22.04.2018 17:00:00 20,1 11,3 5 3 OSO 1019,1 10
22.04.2018 16:00:00 22,0 11,0 16 9 OSO - 10
22.04.2018 15:00:00 22,0 11,0 9 5 O - 10
22.04.2018 14:00:00 23,3 8,9 15 8 OSO 1019,2 10
22.04.2018 13:00:00 23,0 9,0 13 7 OSO - 10
22.04.2018 12:00:00 23,0 10,0 9 5 O - 10
22.04.2018 11:00:00 20,6 10,2 9 5 O 1020,3 10
22.04.2018 10:00:00 20,0 12,0 9 5 OSO - 10
22.04.2018 09:00:00 19,0 11,0 5 3 OSO - 10
22.04.2018 08:00:00 16,8 11,2 8 4 OSO 1019,6 10
22.04.2018 07:00:00 14,0 10,0 2 1 - - 10
22.04.2018 06:00:00 13,0 10,0 4 2 SSO - 10
22.04.2018 05:00:00 14,2 10,1 5 3 ONO 1019,0 10
22.04.2018 04:00:00 14,0 10,0 5 3 OSO - 10
22.04.2018 03:00:00 14,0 11,0 4 2 O - 10
22.04.2018 02:00:00 14,8 12,4 2 1 - 1019,5 10
22.04.2018 01:00:00 15,0 14,0 5 3 O - 10
22.04.2018 00:00:00 15,0 14,0 8 4 SO - 10
21.04.2018 23:00:00 16,6 11,6 5 3 SO 1020,1 10
21.04.2018 22:00:00 17,0 10,0 8 4 ONO - 10
21.04.2018 21:00:00 17,0 11,0 8 4 O - 10
21.04.2018 20:00:00 18,5 11,2 5 3 NNO 1019,2 10
21.04.2018 19:00:00 20,0 10,0 11 6 NO - 10
21.04.2018 18:00:00 22,0 11,0 11 6 ONO - 10
21.04.2018 17:00:00 23,1 10,7 9 5 NO 1018,9 10
21.04.2018 16:00:00 23,0 15,0 5 3 ENE - 10
21.04.2018 15:00:00 25,0 12,0 13 7 NO - 10
21.04.2018 14:00:00 24,0 12,3 9 5 NE 1019,5 10
21.04.2018 13:00:00 24,0 15,0 11 6 SO - 10
21.04.2018 12:00:00 25,0 9,0 9 5 N - 10
21.04.2018 11:00:00 23,2 13,6 9 5 NNE 1019,7 10
21.04.2018 10:00:00 23,0 13,0 9 5 N - 10
21.04.2018 09:00:00 21,0 14,0 5 3 NNO - 10
21.04.2018 08:00:00 17,7 14,2 9 5 NNO 1018,8 10
21.04.2018 07:00:00 15,0 13,0 2 1 - - 10
21.04.2018 06:00:00 15,0 12,0 5 3 NNO - 10
21.04.2018 05:00:00 15,7 10,5 8 4 O 1018,4 10
21.04.2018 04:00:00 16,0 11,0 8 4 NO - 10
21.04.2018 03:00:00 16,0 11,0 5 3 ONO - 10
21.04.2018 02:00:00 15,9 10,2 5 3 ONO 1019,1 10
21.04.2018 01:00:00 16,0 11,0 11 6 ONO - 10
21.04.2018 00:00:00 16,0 11,0 8 4 NO - 10
20.04.2018 23:00:00 16,3 13,4 8 4 OSO 1019,4 10
20.04.2018 22:00:00 17,0 13,0 13 7 N - 10
20.04.2018 21:00:00 18,0 13,0 15 8 N - 10
20.04.2018 20:00:00 18,0 11,9 15 8 N 1018,8 10
20.04.2018 19:00:00 19,0 12,0 15 8 N - 10
20.04.2018 18:00:00 20,0 12,0 11 6 NE - 10
20.04.2018 17:00:00 22,1 10,1 13 7 NNE 1018,1 10
20.04.2018 16:00:00 22,0 12,0 9 5 NNE - 10
20.04.2018 15:00:00 22,0 13,0 13 7 ENE - 10
20.04.2018 14:00:00 21,0 13,1 11 6 ENE 1019,7 10
20.04.2018 13:00:00 21,0 14,0 15 8 NE - 10
20.04.2018 12:00:00 20,0 14,0 18 10 ENE - 10
20.04.2018 11:00:00 19,6 14,5 21 11 ENE 1020,3 10
20.04.2018 10:00:00 19,0 14,0 21 11 NE - 10
20.04.2018 09:00:00 18,0 15,0 18 10 NE - 10
20.04.2018 08:00:00 16,2 15,9 18 10 NE 1019,0 10
20.04.2018 07:00:00 16,0 16,0 15 8 NE - 8
20.04.2018 06:00:00 16,0 15,0 16 9 NE - 6
20.04.2018 05:00:00 15,5 14,9 18 10 NE 1019,1 6
20.04.2018 04:00:00 16,0 15,0 15 8 NE - 6
20.04.2018 03:00:00 16,0 15,0 18 10 NE - 6
20.04.2018 02:00:00 15,9 15,6 15 8 NE 1020,7 6
20.04.2018 01:00:00 16,0 16,0 13 7 NE - 7
20.04.2018 00:00:00 16,0 15,0 16 9 NE - 7
19.04.2018 23:00:00 16,3 15,1 13 7 NE 1021,1 7
19.04.2018 22:00:00 16,0 15,0 15 8 ENE - 7
19.04.2018 21:00:00 16,0 15,0 13 7 ENE - 7
19.04.2018 20:00:00 16,6 14,9 15 8 ENE 1021,0 7

tt = Temperatura
td = dewpoint
ff = velocità del vento
dd = direzione del vento
ppp = reduced air pressure
vv = visibility

Stazioni seguenti

WeatherPro
AMSI
MeteoEarth